Home   Weather   Dallas   Past weeks
Flag for USA

Past Weather in Dallas, Texas, USA — Yesterday and Last 2 Weeks

Now
69 °F

Partly sunny.


Feels Like: 69 °F
Forecast: 71 / 45 °F
Wind: 10 mph from Southwest

Location: Dallas Love Field

Current Time: Mar 19, 2019 at 2:16:53 pm

Latest Report: Mar 19, 2019 at 1:53 pm


Visibility: 10 mi

Pressure: 30.23 "Hg

Humidity: 32%

Dew Point: 38 °F

Location of DallasLocation

Past Weather in Dallas — Graph

°F

Dallas Temperature Yesterday

Maximum temperature yesterday: 70 °F (at 2:53 pm)
Minimum temperature yesterday: 43 °F (at 6:53 am)
Average temperature yesterday: 58 °F

High & Low Weather Summary for the Past Weeks

 TemperatureHumidityPressure
High79 °F (Mar 8, 3:53 pm)100% (Mar 12, 3:12 pm)30.60 "Hg (Mar 12, 3:12 pm)
Low23 °F (Mar 5, 4:53 am)21% (Mar 15, 5:53 pm)29.47 "Hg (Mar 13, 4:53 pm)
Average56 °F59%30.12 "Hg
* Reported Mar 4 11:53 am — Mar 19 12:53 pm, Dallas. Weather by CustomWeather, © 2019

Note: Actual official high and low records may vary slightly from our data, if they occured in-between our weather recording intervals... More about our weather records

Advertising

Dallas Weather History for the Previous 24 Hours

Scroll right to see more
 ConditionsComfort  
Time TempWeatherWind HumidityBarometerVisibility
12:53 pm
Tue, Mar 19
68 °FPartly sunny.15 mph35%30.27 "Hg10 mi
11:53 am67 °FPartly sunny.8 mph33%30.27 "Hg10 mi
10:53 am64 °FPartly sunny.10 mph34%30.28 "Hg10 mi
9:53 am60 °FPartly sunny.5 mph44%30.27 "Hg10 mi
8:53 am56 °FPartly sunny.3 mph53%30.26 "Hg10 mi
7:53 am55 °FPartly sunny.No wind51%30.25 "Hg10 mi
6:53 am54 °FPassing clouds.3 mph53%30.24 "Hg10 mi
5:53 am54 °FPassing clouds.3 mph53%30.23 "Hg10 mi
4:53 am53 °FClear.6 mph56%30.22 "Hg10 mi
3:53 am52 °FPassing clouds.No wind64%30.22 "Hg10 mi
2:53 am52 °FPassing clouds.No wind64%30.24 "Hg10 mi
1:53 am54 °FPassing clouds.No wind59%30.24 "Hg10 mi
12:53 am57 °FPassing clouds.No wind47%30.24 "Hg10 mi
11:53 pm
Mon, Mar 18
55 °FPassing clouds.6 mph57%30.25 "Hg10 mi
10:53 pm59 °FPassing clouds.No wind46%30.24 "Hg10 mi
9:53 pm61 °FPassing clouds.No wind39%30.24 "Hg10 mi
8:53 pm64 °FPassing clouds.5 mph33%30.22 "Hg10 mi
7:53 pm67 °FPassing clouds.6 mph29%30.22 "Hg10 mi
6:53 pm69 °FPassing clouds.8 mph27%30.21 "Hg10 mi
5:53 pm70 °FPassing clouds.6 mph25%30.21 "Hg10 mi
4:53 pm70 °FPassing clouds.7 mph23%30.22 "Hg10 mi
3:53 pm70 °FPassing clouds.6 mph25%30.23 "Hg10 mi
2:53 pm70 °FPassing clouds.6 mph26%30.25 "Hg10 mi
Weather by CustomWeather, © 2019

See weather overview